{"data":{"norad_id":68637,"epoch":"2026-05-24T18:32:37.176000Z","epoch_age_seconds":84760,"freshness":"FRESH","line1":"1 68637U 26075B   26144.77265250  .00000045  00000+0  41659-4 0  9998","line2":"2 68637  88.9877 323.4337 0011458  69.0309 291.2074 13.62578006  6627","mean_motion":13.62578006,"eccentricity":0.0011458,"inclination_deg":88.9877,"raan_deg":323.4337,"arg_perigee_deg":69.0309,"mean_anomaly_deg":291.2074,"bstar":4.1659e-5,"rev_number":662,"period_min":105.68202287569,"perigee_km":1017.8537341761,"apogee_km":1034.8218285851,"semimajor_km":7404.4747813806,"source":"CELESTRAK","updated_at":"2026-05-25T13:38:07.989754Z"}}